Tracking 31027 objects as of 19-Jul-2025
HD Live streaming from Space Station
objects crossing your sky now

SL-6 R/B(2)

Track SL-6 R/B(2) now!


NORAD ID: 24764
Int'l Code: 1997-015D
Perigee: 3,870.4 km
Apogee: 36,054.8 km
Inclination: 66.0 °
Period: 708.8 minutes
Semi major axis: 26333 km
RCS: 5.7641 m2 (large)
Launch date: April 9, 1997
Source: Commonwealth of Independent States (former USSR) (CIS)
Launch site: PLESETSK MISSILE AND SPACE COMPLEX (PKMTR)

Note: This is a ROCKET BODY
Your satellite tracking list
FENGYUN 1C DEB
Track 1 satellite(s)




NASA's NSSDC Master Catalog

Two Line Element Set (TLE):
1 24764U 97015D   25197.77621536  .00000690  00000-0  00000+0 0  9990
2 24764  65.9645 100.0062 6110896 140.4225 285.8589  2.03159933209762
Source of the keplerian elements: AFSPC